Weather Roundup
Issued by NWS Springfield, MO

Home | Current Version | Previous Version | Text Only | Print | Product List | Glossary On
Versions: 1 2 3 4 5 6 7 8 9 10 11 12 13 14 15 16 17 18 19 20 21 22 23 24 25 26 27 28 29 30 31 32 33 34 35 36 37 38 39 40 41 42 43 44 45 46 47 48 49 50
000
NZUS99 KSGF 110307
HRRSGF

HOURLY WEATHER
NATIONAL WEATHER SERVICE SPRINGFIELD MO
900 PM CST SUN DEC 10 2017

......SGF CWA......

CITY           SKY/WX    TMP DP  RH WIND       PRES   REMARKS
SPRINGFIELD    CLEAR     42  23  46 W6        30.17R
JOPLIN         CLEAR     43  24  47 SW3       30.20R
WEST PLAINS    CLEAR     42  23  46 W5        30.17S
ROLLA          CLEAR     37  25  61 W7        30.15R WCI  32
OSAGE BEACH    CLEAR     37  25  61 CALM      30.17R
BRANSON        CLEAR     46  23  39 SW6       30.19S

......SURROUNDING SGF CWA......

CITY           SKY/WX    TMP DP  RH WIND       PRES   REMARKS
CHANUTE        CLEAR     41  23  48 SW5       30.19R
PARSONS        CLEAR     32  22  66 CALM      30.20R
COFFEYVILLE    CLEAR     37  24  59 S6        30.20R WCI  32
EMPORIA        CLEAR     45  17  32 W5        30.16F
GROVE OK       CLEAR     39  30  70 CALM      30.22R
ROGERS AR      PTCLDY    46  23  40 SW5       30.21R
SILOAM SPRINGS CLEAR     47  22  37 SW3       30.22R
HARRISON AR    CLEAR     50  22  33 W8        30.18S
NEAR YELLVILLE CLEAR     49  23  36 S3        30.19S

......KANSAS AND MISSOURI......

CITY           SKY/WX    TMP DP  RH WIND       PRES   REMARKS
KANSAS CTY INT CLEAR     45  24  43 SW5       30.13F
DOWNTOWN KC    CLEAR     38  27  64 CALM      30.14S
COLUMBIA       CLEAR     43  25  49 W6        30.14R
SEDALIA        CLEAR     44  27  51 SW6       30.16R
ST JOSEPH      CLEAR     30  24  78 SW3       30.13S
ST LOUIS       CLEAR     41  26  55 W5        30.14R
SPIRIT OF STL  CLEAR     31  24  75 W3        30.14R
KIRKSVILLE     CLEAR     30  24  78 W3        30.10F
WICHITA        CLEAR     40  19  43 W8        30.20S WCI  34
TOPEKA         CLEAR     36  24  62 CALM      30.14S
OLATHE         CLEAR     40  24  53 CALM      30.15S

......TENNESSEE......

CITY           SKY/WX    TMP DP  RH WIND       PRES   REMARKS
MEMPHIS        CLEAR     43  30  60 S7        30.19R
NASHVILLE      PTCLDY    39  23  52 SW7       30.17F WCI  34

......ARKANSAS.......

CITY           SKY/WX    TMP DP  RH WIND       PRES   REMARKS
FAYETTEVILLE   CLEAR     34  26  72 S3        30.22R
FT SMITH       CLEAR     45  25  45 W6        30.22S
LITTLE ROCK    CLEAR     46  29  51 CALM      30.21S

......OKLAHOMA.......

CITY           SKY/WX    TMP DP  RH WIND       PRES   REMARKS
TULSA          CLEAR     51  23  33 CALM      30.22S
PONCA CITY     CLEAR     44  21  40 CALM      30.22S
MCALESTER      PTCLDY    41  25  53 CALM      30.25S
OKLAHOMA CITY  CLEAR     49  14  24 CALM      30.27R

......IOWA............

CITY           SKY/WX    TMP DP  RH WIND       PRES   REMARKS
DES MOINES     MOCLDY    36  24  62 SW3       30.08F
QUAD CITIES    CLOUDY    23  18  81 CALM      30.10S

......ILLINOIS........

CITY           SKY/WX    TMP DP  RH WIND       PRES   REMARKS
QUINCY         CLEAR     34  24  67 CALM      30.11S
CHICAGO        CLOUDY    30  19  63 N7        30.07R WCI  23




USA.gov is the U.S. government's official web portal to all federal, state and local government web resources and services.